KJ4CO Weather Reports


time (UTC)temp
C
wind
direction
speed
KPH
gust
KPH
rain 1hr
cm
rain 24hr
cm
rain mn
cm
humidity
%
barometer
mb
20260904131517 24 144 0.0 0.0 0.00 0.00 0.00 97 1015.1
20260904130015 23 144 0.0 0.0 0.00 0.00 0.00 96 1015.0
20260904124513 23 144 0.0 0.0 0.00 0.00 0.00 96 1014.9
20260904123014 23 144 0.0 0.0 0.00 0.00 0.00 96 1014.9
20260904121511 23 144 0.0 0.0 0.00 0.00 0.00 95 1014.8
20260904120013 23 144 0.0 0.0 0.00 0.00 0.00 95 1014.6
20260904114510 23 144 0.0 0.0 0.00 0.00 0.00 95 1014.6
20260904113026 23 144 0.0 0.0 0.00 0.00 0.00 95 1014.4
20260904111519 23 144 0.0 0.0 0.00 0.00 0.00 95 1014.4
20260904110005 23 144 0.0 0.0 0.00 0.00 0.00 95 1014.2
20260904104504 23 144 0.0 0.0 0.00 0.00 0.00 95 1014.2
20260904103002 23 144 0.0 0.0 0.00 0.00 0.00 95 1014.1
20260904101500 23 144 0.0 0.0 0.00 0.00 0.00 95 1014.0
20260904100108 23 144 0.0 0.0 0.00 0.00 0.00 95 1013.8
20260904094559 23 144 0.0 0.0 0.00 0.00 0.00 95 1013.7
20260904093058 23 144 0.0 0.0 0.00 0.00 0.00 95 1013.6
20260904091555 23 144 0.0 0.0 0.00 0.00 0.00 95 1013.6
20260904090055 23 144 0.0 0.0 0.00 0.00 0.00 95 1013.5
20260904084554 23 144 0.0 0.0 0.00 0.00 0.00 95 1013.5
20260904083052 24 144 0.0 0.0 0.00 0.00 0.00 95 1013.4
20260904081552 24 144 0.0 0.0 0.00 0.00 0.00 95 1013.4
20260904080054 24 144 0.0 0.0 0.00 0.00 0.00 94 1013.3
20260904074547 24 144 0.0 0.0 0.00 0.00 0.00 95 1013.2
20260904073051 24 144 0.0 0.0 0.00 0.00 0.00 95 1013.3
20260904071544 24 144 0.0 0.0 0.00 0.00 0.00 94 1013.3
20260904070043 25 144 0.0 0.0 0.00 0.00 0.00 94 1013.4
20260904064541 25 144 0.0 0.0 0.00 0.00 0.00 94 1013.4
20260904063040 25 144 0.0 0.0 0.00 0.00 0.00 94 1013.5
20260904061546 25 144 0.0 0.0 0.00 0.00 0.00 94 1013.5
20260904060037 25 144 0.0 0.0 0.00 0.00 0.00 94 1013.6
20260904054537 25 144 0.0 0.0 0.00 0.00 0.00 94 1013.6
20260904053035 25 144 0.0 0.0 0.00 0.00 0.00 94 1013.7
20260904051535 25 144 0.0 0.0 0.00 0.00 0.00 94 1013.7
20260904050032 25 144 0.0 0.0 0.00 0.00 0.00 94 1013.9
20260904044540 26 144 0.0 0.0 0.00 0.00 0.00 94 1013.8
20260904043030 26 144 0.0 0.0 0.00 0.00 0.00 93 1014.0
20260904041535 26 144 0.0 0.0 0.00 0.00 0.00 93 1013.9
20260904040028 26 144 0.0 0.0 0.00 0.00 0.00 93 1014.0
20260904034527 26 144 0.0 0.0 0.00 0.00 0.00 93 1014.0
20260904033028 26 144 0.0 0.0 0.00 0.00 0.00 92 1014.0
20260904031526 26 144 0.0 0.0 0.00 0.00 0.00 92 1013.9
20260904030029 27 144 0.0 0.0 0.00 0.00 0.00 92 1014.0
20260904024526 27 144 0.0 0.0 0.00 0.00 0.00 92 1013.9
20260904023025 27 144 0.0 0.0 0.00 0.00 0.00 91 1013.9
20260904021525 27 144 0.0 0.0 0.00 0.00 0.00 91 1013.7
20260904020038 27 144 0.0 0.0 0.00 0.00 0.00 90 1013.5
20260904014523 28 144 0.0 0.0 0.00 0.00 0.00 90 1013.4
20260904013025 28 144 0.0 0.0 0.00 0.00 0.00 89 1013.3
20260904011522 28 144 0.0 0.0 0.00 0.00 0.00 88 1013.3
20260904010023 29 144 0.0 0.0 0.00 0.00 0.00 87 1013.3
20260904004521 29 144 0.0 0.0 0.00 0.00 0.00 86 1013.1
20260904003024 30 144 0.0 0.0 0.00 0.00 0.00 85 1013.1
20260904001520 30 144 0.0 0.0 0.00 0.00 0.00 83 1013.1
20260904000020 31 144 0.0 0.0 0.00 0.00 0.00 82 1012.9
20260903234519 31 144 0.0 0.0 0.00 0.00 0.00 83 1012.8
20260903233018 31 144 0.0 0.0 0.00 0.00 0.00 82 1012.7
20260903231519 32 144 0.0 0.0 0.00 0.00 0.00 82 1012.8
20260903230017 32 144 0.0 0.0 0.00 0.00 0.00 81 1012.6
20260903224516 32 144 0.0 0.0 0.00 0.00 0.00 78 1012.5
20260903223022 32 144 0.0 0.0 0.00 0.00 0.00 77 1012.6
20260903221514 32 144 0.0 0.0 0.00 0.00 0.00 77 1012.6
20260903220016 32 144 0.0 0.0 0.00 0.00 0.00 77 1012.6
20260903214514 32 144 0.0 0.0 0.00 0.00 0.00 78 1012.7
20260903213013 32 144 0.0 0.0 0.00 0.00 0.00 72 1012.8
20260903211509 33 144 0.0 0.0 0.00 0.00 0.00 70 1013.0
20260903210008 35 144 0.0 0.0 0.00 0.00 0.00 66 1013.2
20260903204504 36 144 0.0 0.0 0.00 0.00 0.00 61 1013.3
20260903203005 36 144 0.0 0.0 0.00 0.00 0.00 52 1013.2
20260903201501 36 144 0.0 0.0 0.00 0.00 0.00 52 1013.4
20260903200108 36 144 0.0 0.0 0.00 0.00 0.00 58 1013.6
20260903194556 36 144 0.0 0.0 0.00 0.00 0.00 57 1013.7
20260903193101 35 144 0.0 0.0 0.00 0.00 0.00 58 1013.8
20260903191600 35 144 0.0 0.0 0.00 0.00 0.00 57 1013.9
20260903190049 35 144 0.0 0.0 0.00 0.00 0.00 58 1014.1
20260903184546 35 144 0.0 0.0 0.00 0.00 0.00 59 1014.3
20260903183104 35 144 0.0 0.0 0.00 0.00 0.00 54 1014.4
20260903181541 36 144 0.0 0.0 0.00 0.00 0.00 53 1014.6
20260903180039 36 140 0.0 0.0 0.00 0.00 0.00 51 1014.7
20260903174535 35 143 0.0 0.0 0.00 0.00 0.00 51 1014.9
20260903173035 35 139 0.0 0.0 0.00 0.00 0.00 53 1015.0
20260903171530 34 166 0.0 0.0 0.00 0.00 0.00 56 1015.1
20260903170029 35 145 0.0 0.0 0.00 0.00 0.00 57 1015.1
20260903164527 34 147 0.0 0.0 0.00 0.00 0.00 57 1015.3
20260903163024 33 155 0.0 0.0 0.00 0.00 0.00 58 1015.5
20260903161531 33 147 0.0 0.0 0.00 0.00 0.00 63 1015.5
20260903160021 32 142 0.0 0.0 0.00 0.00 0.00 67 1015.6
20260903154514 31 124 0.0 0.0 0.00 0.00 0.00 73 1015.7
20260903153011 31 124 0.0 0.0 0.00 0.00 0.00 75 1015.8
20260903151506 30 124 0.0 0.0 0.00 0.00 0.00 79 1015.7
20260903150002 29 124 0.0 0.0 0.00 0.00 0.00 82 1015.7
20260903144559 28 124 0.0 0.0 0.00 0.00 0.00 85 1015.8
20260903143054 27 124 0.0 0.0 0.00 0.00 0.00 91 1015.7
20260903141550 26 124 0.0 0.0 0.00 0.00 0.00 95 1015.9
20260903140047 26 124 0.0 0.0 0.00 0.00 0.00 96 1016.0
20260903134554 25 124 0.0 0.0 0.00 0.00 0.00 97 1016.0
20260903133048 25 124 0.0 0.0 0.00 0.00 0.00 97 1016.0